FW8459 Weather Reports


time (UTC)temp
F
wind
direction
speed
knots
gust
knots
rain 1hr
in
rain 24hr
in
rain mn
in
humidity
%
barometer
mb
20260902002748 68 59 0.9 0.9 0.00 0.00 0.00 60 1019.7
20260902002247 69 246 2.6 2.6 0.00 0.00 0.00 58 1019.7
20260902001743 68 221 0.9 0.9 0.00 0.00 0.00 60 1019.5
20260902001238 67 75 2.6 4.3 0.00 0.00 0.00 60 1019.7
20260902000738 68 257 2.6 4.3 0.00 0.00 0.00 59 1019.7
20260902000233 68 261 1.7 1.7 0.00 0.00 0.00 60 1019.6
20260901235727 67 149 1.7 2.6 0.00 0.00 0.00 61 1019.7
20260901235222 66 130 1.7 1.7 0.00 0.00 0.00 61 1019.6
20260901234722 66 265 3.5 5.2 0.00 0.00 0.00 61 1019.5
20260901234222 67 179 2.6 4.3 0.00 0.00 0.00 60 1019.8
20260901233716 66 28 0.9 0.9 0.00 0.00 0.00 63 1019.7
20260901233213 66 253 0.9 1.7 0.00 0.00 0.00 63 1019.5
20260901232713 65 212 2.6 2.6 0.00 0.00 0.00 64 1019.7
20260901232208 64 26 1.7 2.6 0.00 0.00 0.00 64 1019.9
20260901231704 65 153 2.6 2.6 0.00 0.00 0.00 63 1019.9
20260901231200 64 201 1.7 1.7 0.00 0.00 0.00 64 1019.9
20260901230656 64 172 3.5 6.1 0.00 0.00 0.00 67 1019.7
20260901230155 63 82 3.5 5.2 0.00 0.00 0.00 66 1020.0
20260901225651 63 205 1.7 4.3 0.00 0.00 0.00 68 1020.0
20260901225145 62 157 0.9 1.7 0.00 0.00 0.00 69 1019.8
20260901224641 61 189 0.9 1.7 0.00 0.00 0.00 70 1019.9
20260901224137 61 274 0.0 0.0 0.00 0.00 0.00 71 1019.9
20260901223632 61 282 0.9 0.9 0.00 0.00 0.00 71 1019.9
20260901223128 60 238 0.9 0.9 0.00 0.00 0.00 74 1019.9
20260901222624 59 301 1.7 1.7 0.00 0.00 0.00 75 1020.2
20260901222120 59 309 0.9 1.7 0.00 0.00 0.00 76 1020.2
20260901221615 58 75 0.9 1.7 0.00 0.00 0.00 78 1020.0
20260901221111 58 139 0.9 1.7 0.00 0.00 0.00 79 1020.0
20260901220610 57 287 0.9 1.7 0.00 0.00 0.00 80 1019.8
20260901220109 57 321 0.0 0.9 0.00 0.00 0.00 82 1019.7
20260901215608 57 307 0.0 0.0 0.00 0.00 0.00 82 1020.0
20260901215102 56 305 0.0 0.0 0.00 0.00 0.00 82 1019.9
20260901214601 56 307 0.0 0.0 0.00 0.00 0.00 82 1020.2
20260901214055 56 284 0.0 0.0 0.00 0.00 0.00 82 1020.0
20260901213555 56 75 0.0 0.9 0.00 0.00 0.00 82 1019.8
20260901213049 56 32 0.9 0.9 0.00 0.00 0.00 83 1019.7
20260901212543 55 14 0.9 0.9 0.00 0.00 0.00 87 1019.8
20260901212040 54 331 0.0 0.0 0.00 0.00 0.00 88 1019.7
20260901211535 54 289 0.0 0.0 0.00 0.00 0.00 88 1019.5
20260901211032 53 252 0.0 0.9 0.00 0.00 0.00 88 1019.5
20260901210526 53 288 0.0 0.0 0.00 0.00 0.00 88 1019.4
20260901210023 53 316 0.0 0.0 0.00 0.00 0.00 89 1019.5
20260901205518 53 295 0.0 0.0 0.00 0.00 0.00 89 1019.4
20260901205018 53 273 0.0 0.0 0.00 0.00 0.00 89 1019.3
20260901204514 53 318 0.0 0.0 0.00 0.00 0.00 89 1019.2
20260901204009 53 309 0.0 0.0 0.00 0.00 0.00 89 1019.2
20260901203503 53 246 0.0 0.9 0.00 0.00 0.00 88 1019.4
20260901202958 53 275 0.0 0.0 0.00 0.00 0.00 88 1019.4
20260901202454 53 108 0.0 0.9 0.00 0.00 0.00 88 1019.1
20260901201949 53 342 0.0 0.0 0.00 0.00 0.00 88 1019.3
20260901201443 53 320 0.0 0.0 0.00 0.00 0.00 88 1019.1
20260901200938 53 258 0.0 0.9 0.00 0.00 0.00 87 1019.2
20260901200433 53 9 0.0 0.9 0.00 0.00 0.00 87 1019.1
20260901195932 53 305 0.0 0.0 0.00 0.00 0.00 87 1019.3
20260901195431 53 195 0.9 1.7 0.00 0.00 0.00 87 1019.6
20260901194926 53 329 0.9 1.7 0.00 0.00 0.00 87 1019.2
20260901194420 53 293 0.0 0.0 0.00 0.00 0.00 87 1019.6
20260901193917 53 34 0.9 1.7 0.00 0.00 0.00 87 1019.3
20260901193416 53 356 0.0 0.9 0.00 0.00 0.00 87 1019.4
20260901192916 54 298 0.0 0.0 0.00 0.00 0.00 87 1019.5
20260901192412 54 338 1.7 2.6 0.00 0.00 0.00 86 1019.5
20260901191908 54 261 0.9 1.7 0.00 0.00 0.00 85 1019.6
20260901191403 55 242 0.9 0.9 0.00 0.00 0.00 84 1019.5
20260901190858 55 45 0.9 0.9 0.00 0.00 0.00 82 1020.2
20260901190353 55 179 0.9 1.7 0.00 0.00 0.00 80 1020.2
20260901185851 55 238 0.9 2.6 0.00 0.00 0.00 80 1020.0
20260901185350 55 120 0.9 1.7 0.00 0.00 0.00 80 1019.8
20260901184845 55 89 0.9 0.9 0.00 0.00 0.00 79 1019.6
20260901184341 55 139 1.7 1.7 0.00 0.00 0.00 80 1019.3
20260901183836 55 287 0.0 0.9 0.00 0.00 0.00 80 1019.2
20260901183335 54 252 0.0 0.9 0.00 0.00 0.00 81 1019.0
20260901182832 54 328 0.9 1.7 0.00 0.00 0.00 82 1019.0
20260901182332 54 285 0.0 0.0 0.00 0.00 0.00 82 1019.0
20260901181827 53 213 0.9 1.7 0.00 0.00 0.00 84 1019.0
20260901181321 52 256 0.9 0.9 0.00 0.00 0.00 87 1019.0
20260901180815 51 189 0.9 0.9 0.00 0.00 0.00 91 1018.9
20260901180314 50 191 0.0 0.0 0.00 0.00 0.00 92 1019.2
20260901175813 49 309 0.0 0.0 0.00 0.00 0.00 92 1019.0
20260901175308 49 292 0.0 0.0 0.00 0.00 0.00 91 1019.1
20260901174803 49 291 0.0 0.0 0.00 0.00 0.00 91 1019.0
20260901174259 49 290 0.0 0.0 0.00 0.00 0.00 90 1019.0
20260901173754 49 279 0.0 0.0 0.00 0.00 0.00 90 1019.1
20260901173249 49 294 0.0 0.0 0.00 0.00 0.00 90 1018.8
20260901172746 50 291 0.0 0.0 0.00 0.00 0.00 90 1018.8
20260901172244 50 279 0.0 0.0 0.00 0.00 0.00 90 1019.0
20260901171743 50 224 0.0 0.9 0.00 0.00 0.00 89 1018.9
20260901171242 50 237 0.0 0.9 0.00 0.00 0.00 88 1018.9
20260901170741 50 280 0.0 0.0 0.00 0.00 0.00 87 1019.2
20260901170236 51 291 0.0 0.0 0.00 0.00 0.00 87 1019.2
20260901165735 51 265 0.0 0.0 0.00 0.00 0.00 86 1019.2
20260901165235 52 256 0.0 0.0 0.00 0.00 0.00 86 1019.2
20260901164731 52 247 0.9 0.9 0.00 0.00 0.00 86 1019.2
20260901164226 53 206 0.9 0.9 0.00 0.00 0.00 85 1019.3
20260901163721 53 255 0.0 0.0 0.00 0.00 0.00 86 1019.1
20260901163221 53 290 0.0 0.0 0.00 0.00 0.00 87 1019.2
20260901162716 52 314 0.0 0.0 0.00 0.00 0.00 90 1019.5
20260901162215 51 16 0.0 0.9 0.00 0.00 0.00 94 1019.5
20260901161714 50 320 0.0 0.9 0.00 0.00 0.00 97 1019.5
20260901161209 47 135 1.7 2.6 0.00 0.00 0.00 99 1019.7
20260901160706 44 305 0.0 0.0 0.00 0.00 0.00 97 1019.8
20260901160201 44 273 0.0 0.0 0.00 0.00 0.00 97 1020.2
20260901155659 44 240 0.0 0.9 0.00 0.00 0.00 97 1020.0
20260901155155 44 291 0.0 0.0 0.00 0.00 0.00 96 1019.9
20260901154650 44 298 0.0 0.0 0.00 0.00 0.00 96 1020.0
20260901154145 44 292 0.0 0.0 0.00 0.00 0.00 96 1020.2
20260901153640 45 299 0.0 0.0 0.00 0.00 0.00 96 1020.2
20260901153139 45 258 0.0 0.0 0.00 0.00 0.00 96 1020.5
20260901152634 45 280 0.0 0.0 0.00 0.00 0.00 96 1020.2
20260901152127 45 264 0.0 0.0 0.00 0.00 0.00 96 1020.3
20260901151623 46 274 0.0 0.0 0.00 0.00 0.00 96 1020.3
20260901151122 46 248 0.0 0.0 0.00 0.00 0.00 96 1020.5
20260901150621 46 278 0.0 0.0 0.00 0.00 0.00 96 1020.0
20260901150114 46 297 0.0 0.0 0.00 0.00 0.00 96 1020.4
20260901145613 46 299 0.0 0.0 0.00 0.00 0.00 96 1020.5
20260901145112 46 229 0.9 0.9 0.00 0.00 0.00 96 1020.6
20260901144608 46 283 0.0 0.0 0.00 0.00 0.00 96 1020.6
20260901144103 45 289 0.0 0.0 0.00 0.00 0.00 96 1020.5
20260901143558 45 309 0.0 0.0 0.00 0.00 0.00 96 1020.5
20260901143054 45 266 0.0 0.0 0.00 0.00 0.00 96 1020.7
20260901142550 45 282 0.0 0.0 0.00 0.00 0.00 95 1020.9
20260901142049 45 238 0.9 0.9 0.00 0.00 0.00 95 1020.7
20260901141544 45 304 0.0 0.0 0.00 0.00 0.00 95 1021.0
20260901141039 45 273 0.0 0.0 0.00 0.00 0.00 95 1021.0
20260901140538 46 269 0.0 0.0 0.00 0.00 0.00 95 1020.8
20260901140032 46 296 0.0 0.0 0.00 0.00 0.00 95 1021.0
20260901135531 46 279 0.0 0.0 0.00 0.00 0.00 95 1021.3
20260901135027 46 263 0.0 0.0 0.00 0.00 0.00 95 1021.0
20260901134523 46 278 0.0 0.0 0.00 0.00 0.00 95 1021.2
20260901134023 46 248 0.0 0.9 0.00 0.00 0.00 95 1021.2
20260901133522 46 266 0.0 0.9 0.00 0.00 0.00 95 1020.9
20260901133021 46 249 0.0 0.9 0.00 0.00 0.00 94 1021.1
20260901132515 46 245 0.0 0.0 0.00 0.00 0.00 94 1021.2
20260901132014 46 252 0.0 0.9 0.00 0.00 0.00 94 1021.3
20260901131509 46 262 0.0 0.0 0.00 0.00 0.00 94 1021.3
20260901131005 46 281 0.0 0.0 0.00 0.00 0.00 94 1021.5
20260901130459 46 240 0.0 0.0 0.00 0.00 0.00 94 1021.6
20260901125956 46 266 0.0 0.0 0.00 0.00 0.00 93 1021.4
20260901125456 46 262 0.0 0.0 0.00 0.00 0.00 93 1021.3
20260901124951 46 274 0.0 0.9 0.00 0.00 0.00 93 1021.3
20260901124446 46 260 0.0 0.0 0.00 0.00 0.00 93 1021.2
20260901123941 46 278 0.0 0.0 0.00 0.00 0.00 92 1021.5
20260901123436 47 254 0.0 0.0 0.00 0.00 0.00 92 1021.4
20260901122934 47 278 0.0 0.0 0.00 0.00 0.00 92 1021.2
20260901122434 47 254 0.0 0.0 0.00 0.00 0.00 92 1021.4
20260901121933 47 261 0.0 0.0 0.00 0.00 0.00 91 1021.4
20260901121428 47 284 0.0 0.0 0.00 0.00 0.00 91 1021.4
20260901120923 48 272 0.0 0.0 0.00 0.00 0.00 91 1021.6
20260901120423 48 284 0.0 0.0 0.00 0.00 0.00 91 1021.5
20260901115919 48 275 0.0 0.0 0.00 0.00 0.00 91 1021.6
20260901115418 48 278 0.0 0.0 0.00 0.00 0.00 90 1021.9
20260901114916 49 276 0.0 0.0 0.00 0.00 0.00 90 1022.0
20260901114412 49 282 0.0 0.0 0.00 0.00 0.00 90 1022.2
20260901113910 49 281 0.0 0.0 0.00 0.00 0.00 90 1021.9
20260901113409 49 276 0.0 0.0 0.00 0.00 0.00 90 1022.0
20260901112904 49 276 0.0 0.0 0.00 0.00 0.00 90 1022.1
20260901112359 50 280 0.0 0.0 0.00 0.00 0.00 90 1022.1
20260901111854 50 280 0.0 0.0 0.00 0.00 0.00 90 1022.3
20260901111352 50 285 0.0 0.0 0.00 0.00 0.00 90 1022.2
20260901110851 50 270 0.0 0.0 0.00 0.00 0.00 90 1022.1
20260901110347 50 281 0.0 0.0 0.00 0.00 0.00 89 1022.1
20260901105843 50 276 0.0 0.0 0.00 0.00 0.00 89 1022.2
20260901105338 50 273 0.0 0.0 0.00 0.00 0.00 89 1022.3
20260901104834 50 296 0.0 0.0 0.00 0.00 0.00 89 1022.3
20260901104330 51 291 0.0 0.0 0.00 0.00 0.00 88 1022.3
20260901103825 51 295 0.0 0.0 0.00 0.00 0.00 88 1022.6
20260901103324 51 248 0.0 0.0 0.00 0.00 0.00 88 1022.5
20260901102820 51 286 0.0 0.0 0.00 0.00 0.00 87 1022.3
20260901102314 51 277 0.0 0.0 0.00 0.00 0.00 87 1022.6
20260901101810 51 215 0.0 0.9 0.00 0.00 0.00 87 1022.7
20260901101309 51 225 0.0 0.9 0.00 0.00 0.00 87 1022.5
20260901100809 51 248 0.0 0.0 0.00 0.00 0.00 86 1022.6
20260901100304 51 272 0.0 0.0 0.00 0.00 0.00 85 1022.7
20260901095802 52 289 0.0 0.0 0.00 0.00 0.00 85 1022.7
20260901095300 52 207 0.9 0.9 0.00 0.00 0.00 85 1022.7
20260901094754 53 269 0.0 0.0 0.00 0.00 0.00 84 1022.8
20260901094249 53 266 0.0 0.9 0.00 0.00 0.00 84 1022.5
20260901093745 53 255 0.0 0.0 0.00 0.00 0.00 83 1022.7
20260901093243 54 263 0.0 0.0 0.00 0.00 0.00 82 1022.5
20260901092740 54 266 0.0 0.0 0.00 0.00 0.00 82 1022.7
20260901092235 55 265 0.0 0.0 0.00 0.00 0.00 82 1022.6
20260901091731 55 246 0.0 0.0 0.00 0.00 0.00 81 1022.5
20260901091226 55 252 0.0 0.0 0.00 0.00 0.00 80 1022.5
20260901090721 55 273 0.0 0.0 0.00 0.00 0.00 79 1022.5
20260901090216 56 271 0.0 0.0 0.00 0.00 0.00 78 1022.4
20260901085712 56 267 0.0 0.0 0.00 0.00 0.00 78 1022.4
20260901085207 57 269 0.0 0.0 0.00 0.00 0.00 77 1022.6
20260901084703 57 280 0.0 0.0 0.00 0.00 0.00 76 1022.4
20260901084200 58 293 0.0 0.0 0.00 0.00 0.00 75 1022.3
20260901083659 59 306 0.0 0.0 0.00 0.00 0.00 74 1022.2
20260901083158 59 288 0.0 0.0 0.00 0.00 0.00 74 1022.0
20260901082652 59 51 0.9 4.3 0.00 0.00 0.00 74 1022.2
20260901082148 59 325 0.0 0.0 0.00 0.00 0.00 73 1022.2
20260901081643 59 306 0.0 0.0 0.00 0.00 0.00 72 1022.3
20260901081142 60 247 0.0 0.0 0.00 0.00 0.00 72 1022.1
20260901080637 60 341 0.0 0.0 0.00 0.00 0.00 71 1022.0
20260901080136 59 169 0.0 0.9 0.00 0.00 0.00 71 1022.2
20260901075631 60 238 0.0 0.0 0.00 0.00 0.00 71 1022.1
20260901075131 60 219 0.0 0.0 0.00 0.00 0.00 70 1022.4
20260901074630 61 256 0.0 0.9 0.00 0.00 0.00 69 1022.2
20260901074126 61 255 0.0 0.9 0.00 0.00 0.00 68 1022.0
20260901073622 62 235 0.0 0.0 0.00 0.00 0.00 66 1021.9
20260901073118 62 224 0.9 0.9 0.00 0.00 0.00 65 1022.0
20260901072613 62 171 0.9 0.9 0.00 0.00 0.00 64 1022.2
20260901072108 62 356 0.9 2.6 0.00 0.00 0.00 65 1022.2
20260901071607 63 193 0.9 0.9 0.00 0.00 0.00 66 1022.3
20260901071107 63 164 0.0 0.9 0.00 0.00 0.00 66 1021.9
20260901070601 64 245 0.0 0.9 0.00 0.00 0.00 65 1022.4
20260901070057 64 165 1.7 1.7 0.00 0.00 0.00 64 1022.3
20260901065550 64 258 1.7 1.7 0.00 0.00 0.00 63 1022.2
20260901065045 64 255 0.0 0.9 0.00 0.00 0.00 62 1022.2
20260901064543 65 140 1.7 2.6 0.00 0.00 0.00 61 1022.4
20260901064038 65 41 1.7 2.6 0.00 0.00 0.00 60 1022.4
20260901063535 65 231 0.9 1.7 0.00 0.00 0.00 59 1022.4
20260901063031 65 172 2.6 2.6 0.00 0.00 0.00 59 1022.6
20260901062526 65 181 0.9 0.9 0.00 0.00 0.00 59 1022.3
20260901062022 65 277 2.6 2.6 0.00 0.00 0.00 59 1022.5
20260901061518 65 166 0.9 0.9 0.00 0.00 0.00 59 1022.6
20260901061013 66 189 4.3 5.2 0.00 0.00 0.00 58 1022.6
20260901060507 66 122 1.7 2.6 0.00 0.00 0.00 58 1022.6
20260901060002 66 37 0.9 0.9 0.00 0.00 0.00 59 1022.9
20260901055458 65 161 0.9 1.7 0.00 0.00 0.00 59 1022.6
20260901054954 65 198 1.7 1.7 0.00 0.00 0.00 58 1022.8
20260901054451 66 163 1.7 2.6 0.00 0.00 0.00 56 1022.8
20260901053947 67 186 2.6 2.6 0.00 0.00 0.00 55 1023.0
20260901053442 67 208 2.6 4.3 0.00 0.00 0.00 55 1023.0
20260901052938 66 290 0.9 1.7 0.00 0.00 0.00 55 1022.8
20260901052433 66 193 1.7 2.6 0.00 0.00 0.00 55 1022.9
20260901051932 66 254 1.7 2.6 0.00 0.00 0.00 55 1022.9
20260901051427 66 242 3.5 5.2 0.00 0.00 0.00 54 1022.8
20260901050928 66 207 2.6 4.3 0.00 0.00 0.00 54 1022.8
20260901050423 67 254 2.6 4.3 0.00 0.00 0.00 53 1022.9
20260901045922 67 266 2.6 2.6 0.00 0.00 0.00 52 1023.0
20260901045418 67 251 4.3 6.1 0.00 0.00 0.00 52 1022.8
20260901044913 66 246 0.9 0.9 0.00 0.00 0.00 51 1022.9
20260901044409 67 216 1.7 1.7 0.00 0.00 0.00 51 1022.9
20260901043904 68 195 1.7 1.7 0.00 0.00 0.00 50 1023.0
20260901043400 68 165 2.6 5.2 0.00 0.00 0.00 49 1023.0
20260901042855 70 214 0.9 1.7 0.00 0.00 0.00 47 1023.0
20260901042354 71 200 3.5 5.2 0.00 0.00 0.00 46 1023.0
20260901041850 68 314 0.9 0.9 0.00 0.00 0.00 49 1023.1
20260901041345 69 198 1.7 2.6 0.00 0.00 0.00 49 1023.2
20260901040840 67 206 2.6 2.6 0.00 0.00 0.00 50 1023.2
20260901040339 68 160 2.6 5.2 0.00 0.00 0.00 49 1023.2
20260901035838 68 244 3.5 4.3 0.00 0.00 0.00 50 1023.2
20260901035337 70 171 3.5 4.3 0.00 0.00 0.00 47 1023.6
20260901034836 70 26 3.5 7.0 0.00 0.00 0.00 46 1023.5
20260901034331 71 287 2.6 4.3 0.00 0.00 0.00 46 1023.7
20260901033831 71 144 2.6 2.6 0.00 0.00 0.00 46 1023.5
20260901033330 71 304 0.9 1.7 0.00 0.00 0.00 47 1024.1
20260901032829 69 220 4.3 6.1 0.00 0.00 0.00 47 1024.0
20260901032328 70 205 3.5 5.2 0.00 0.00 0.00 46 1023.9
20260901031824 69 127 1.7 2.6 0.00 0.00 0.00 48 1024.2
20260901031320 69 189 4.3 5.2 0.00 0.00 0.00 47 1024.3
20260901030819 71 276 2.6 4.3 0.00 0.00 0.00 47 1024.2
20260901030315 69 293 2.6 2.6 0.00 0.00 0.00 48 1024.3
20260901025814 70 24 0.9 1.7 0.00 0.00 0.00 47 1024.5
20260901025309 68 35 1.7 2.6 0.00 0.00 0.00 49 1024.2
20260901024804 67 44 1.7 2.6 0.00 0.00 0.00 50 1024.4
20260901024303 67 78 1.7 2.6 0.00 0.00 0.00 49 1024.6
20260901023801 68 168 2.6 4.3 0.00 0.00 0.00 47 1024.9
20260901023256 70 179 3.5 4.3 0.00 0.00 0.00 47 1024.7
20260901022751 69 220 2.6 2.6 0.00 0.00 0.00 49 1025.0
20260901022247 69 105 2.6 4.3 0.00 0.00 0.00 48 1025.0
20260901021742 69 221 0.9 1.7 0.00 0.00 0.00 48 1025.2
20260901021238 68 190 0.9 1.7 0.00 0.00 0.00 48 1024.9
20260901020733 68 183 3.5 6.1 0.00 0.00 0.00 51 1025.1
20260901020229 68 253 0.9 1.7 0.00 0.00 0.00 49 1025.6
20260901015729 69 349 0.9 1.7 0.00 0.00 0.00 50 1025.5
20260901015225 68 213 0.9 0.9 0.00 0.00 0.00 53 1025.5
20260901014724 69 245 1.7 1.7 0.00 0.00 0.00 51 1025.7
20260901014220 69 331 2.6 4.3 0.00 0.00 0.00 53 1025.8
20260901013715 69 314 2.6 4.3 0.00 0.00 0.00 53 1026.3
20260901013211 69 218 0.9 1.7 0.00 0.00 0.00 53 1025.9
20260901012706 69 15 1.7 2.6 0.00 0.00 0.00 54 1026.2
20260901012201 67 347 0.0 0.0 0.00 0.00 0.00 58 1026.6
20260901011657 66 355 3.5 5.2 0.00 0.00 0.00 59 1026.7
20260901011156 66 20 1.7 1.7 0.00 0.00 0.00 60 1026.2
20260901010651 65 354 2.6 2.6 0.00 0.00 0.00 61 1026.8
20260901010150 65 339 0.9 0.9 0.00 0.00 0.00 61 1027.0
20260901005644 64 355 0.9 0.9 0.00 0.00 0.00 62 1027.1
20260901005140 64 26 0.9 0.9 0.00 0.00 0.00 62 1027.0
20260901004639 64 359 2.6 2.6 0.00 0.00 0.00 61 1027.1
20260901004133 66 339 0.9 1.7 0.00 0.00 0.00 59 1027.3
20260901003628 65 354 0.9 0.9 0.00 0.00 0.00 60 1027.3